{"data":{"norad_id":68424,"intl_designator":"2026-067J","name":"SPACEVAN-002","alt_names":[],"object_type":"PAYLOAD","status":"ACTIVE","operator":null,"country":"FR","launch_date":"2026-03-30","launch_site_code":"AFWTR","launch_vehicle":null,"mission":null,"orbit_class":"UNKNOWN","rcs_meters":null,"size_class":null,"mass_kg":null,"dimensions":null,"purposes":[],"wikipedia_slug":null,"has_3d_model":false,"image_url":null,"decayed_at":null,"tle_current":{"epoch":"2026-09-19T16:26:01.589568Z","epoch_age_seconds":139593,"freshness":"FRESH","line1":"1 68424U 26067J   26262.68474062  .00003021  00000+0  14491-3 0  9997","line2":"2 68424  97.4625 219.8545 0003445  73.2102 286.9511 15.19643909 26281","mean_motion":15.19643909,"eccentricity":0.0003445,"inclination_deg":97.4625,"raan_deg":219.8545,"arg_perigee_deg":73.2102,"mean_anomaly_deg":286.9511,"bstar":0.00014491,"rev_number":2628,"period_min":94.759041343284,"perigee_km":504.54406436937,"apogee_km":509.28786586233,"semimajor_km":6885.0529651159,"source":"CELESTRAK","updated_at":"2026-09-20T09:00:24.200036Z"}}}